Location: Durham
(54.7770°N, 1.5720°W)
Time: 19:56:27
(UTC+00:00)

ISS - Visible Passes

Search period start: 25 February 2018 00:00
Search period end: 07 March 2018 00:00
Orbit: 403 x 406 km, 51.6° (Epoch: 26 February)

Date Brightness Start Highest point End Pass type
(mag) Time Alt. Az. Time Alt. Az. Time Alt. Az.
27 Feb -0.6 06:09:19 10° SSE 06:10:04 11° SE 06:10:50 10° SE visible
01 Mar -1.2 05:59:22 10° SSW 06:01:39 18° SSE 06:03:56 10° ESE visible
02 Mar -1.0 05:08:13 10° S 05:09:38 12° SE 05:11:04 10° ESE visible
03 Mar -2.0 05:50:29 10° SW 05:53:18 26° SSE 05:56:07 10° E visible
04 Mar -1.6 04:59:34 14° S 05:01:11 20° SSE 05:03:39 10° ESE visible
05 Mar -1.2 04:09:24 14° SE 04:09:24 14° SE 04:10:55 10° ESE visible
05 Mar -2.7 05:42:03 11° SW 05:44:57 37° SSE 05:48:01 10° E visible
06 Mar -2.4 04:51:48 24° S 04:52:45 29° SSE 04:55:40 10° E visible
